EW4164 Weather Reports


time (UTC)temp
C
wind
direction
speed
KPH
gust
KPH
rain 1hr
cm
rain 24hr
cm
rain mn
cm
humidity
%
barometer
mb
20260906053537 13 13 3.2 6.4 0.00 0.00 0.00 77 1027.3
20260906052517 13 9 1.6 4.8 0.00 0.00 0.00 77 1027.3
20260906051538 13 8 1.6 4.8 0.00 0.00 0.00 76 1027.1
20260906050517 13 20 1.6 6.4 0.00 0.00 0.00 76 1027.0
20260906045517 14 7 1.6 3.2 0.00 0.00 0.00 75 1027.1
20260906044518 14 6 1.6 4.8 0.00 0.00 0.00 75 1027.2
20260906043517 14 14 1.6 4.8 0.00 0.00 0.00 75 1027.1
20260906042517 14 17 3.2 6.4 0.00 0.00 0.00 75 1027.0
20260906041517 14 11 3.2 6.4 0.00 0.00 0.00 75 1026.9
20260906040517 14 19 1.6 4.8 0.00 0.00 0.00 75 1027.0
20260906035537 14 20 1.6 6.4 0.00 0.00 0.00 74 1027.0
20260906034516 15 7 1.6 8.0 0.00 0.00 0.00 74 1027.2
20260906033517 14 14 3.2 8.0 0.00 0.00 0.00 74 1027.2
20260906032517 14 25 1.6 8.0 0.00 0.00 0.00 75 1027.1
20260906031517 14 20 3.2 8.0 0.00 0.00 0.00 76 1027.1
20260906030517 14 3 1.6 8.0 0.00 0.00 0.00 77 1027.2
20260906025537 13 24 1.6 8.0 0.00 0.00 0.00 79 1027.2
20260906024517 13 13 3.2 8.0 0.00 0.00 0.00 81 1027.1
20260906023517 12 11 1.6 8.0 0.00 0.00 0.00 82 1027.1
20260906022517 12 359 0.0 3.2 0.00 0.00 0.00 82 1027.1
20260906021517 12 316 0.0 3.2 0.00 0.00 0.00 81 1027.2
20260906020538 12 0.0 1.6 0.00 0.00 0.00 80 1027.3
20260906015517 12 253 0.0 1.6 0.00 0.00 0.00 79 1027.2
20260906014538 12 0.0 0.0 0.00 0.00 0.00 79 1027.1
20260906013537 12 230 0.0 3.2 0.00 0.00 0.00 78 1027.1
20260906012518 12 230 0.0 1.6 0.00 0.03 0.00 77 1026.9
20260906011517 12 230 1.6 3.2 0.00 0.05 0.00 77 1027.0
20260906010516 12 234 1.6 3.2 0.00 0.05 0.00 76 1027.0
20260906005517 12 219 0.0 3.2 0.00 0.05 0.00 75 1027.2
20260906004518 12 225 1.6 3.2 0.00 0.05 0.00 75 1027.2
20260906003517 12 229 0.0 1.6 0.00 0.05 0.00 74 1027.2
20260906002517 12 230 1.6 4.8 0.00 0.05 0.00 73 1027.1
20260906001518 13 222 1.6 4.8 0.00 0.05 0.00 72 1027.1
20260906000517 13 223 0.0 4.8 0.00 0.05 0.00 71 1027.0
20260905235517 13 230 1.6 4.8 0.00 0.05 0.00 71 1026.9
20260905234518 13 218 1.6 4.8 0.00 0.05 0.00 70 1026.9
20260905233517 13 223 1.6 3.2 0.00 0.05 0.00 70 1026.9
20260905232517 13 180 0.0 3.2 0.00 0.05 0.00 69 1026.8
20260905231518 13 220 1.6 4.8 0.00 0.05 0.00 68 1026.5
20260905230558 13 225 0.0 3.2 0.00 0.05 0.00 68 1026.5
20260905225517 14 225 1.6 4.8 0.00 0.05 0.00 67 1026.4
20260905224517 14 218 1.6 3.2 0.00 0.05 0.00 66 1026.5
20260905223517 14 208 1.6 4.8 0.00 0.05 0.00 65 1026.4
20260905222518 15 232 1.6 6.4 0.00 0.05 0.00 64 1026.4
20260905221558 15 223 3.2 6.4 0.00 0.05 0.00 63 1026.3
20260905220517 15 226 1.6 4.8 0.00 0.05 0.00 63 1026.1
20260905215518 15 229 3.2 6.4 0.00 0.05 0.05 62 1026.0
20260905214527 15 239 1.6 8.0 0.00 0.05 0.05 60 1026.0
20260905213517 15 229 4.8 9.7 0.00 0.05 0.05 60 1025.9
20260905212518 15 230 4.8 8.0 0.00 0.05 0.05 60 1026.0
20260905211537 15 225 3.2 6.4 0.00 0.05 0.05 60 1025.9
20260905210517 16 222 4.8 6.4 0.00 0.05 0.05 59 1025.8
20260905205537 16 241 0.0 6.4 0.00 0.05 0.05 58 1025.7
20260905204517 16 225 4.8 9.7 0.00 0.05 0.05 57 1025.5
20260905203527 16 227 4.8 9.7 0.00 0.05 0.05 57 1025.5
20260905202537 16 228 4.8 11.3 0.00 0.05 0.05 56 1025.4
20260905201518 17 226 4.8 9.7 0.00 0.05 0.05 55 1025.4
20260905200517 17 226 4.8 9.7 0.00 0.05 0.05 55 1025.3
20260905195518 17 228 4.8 11.3 0.00 0.05 0.05 55 1025.3
20260905194517 17 224 3.2 4.8 0.00 0.05 0.05 55 1025.2
20260905193517 17 223 3.2 6.4 0.00 0.05 0.05 54 1025.1
20260905192538 17 225 3.2 4.8 0.00 0.05 0.05 53 1025.1
20260905191517 17 220 3.2 4.8 0.00 0.05 0.05 52 1025.0
20260905190517 18 215 1.6 4.8 0.00 0.05 0.05 51 1024.9
20260905185538 18 224 1.6 4.8 0.00 0.05 0.05 51 1024.9
20260905184517 18 232 1.6 4.8 0.00 0.05 0.05 50 1024.8
20260905183518 20 223 1.6 3.2 0.00 0.05 0.05 47 1024.7
20260905182517 20 223 1.6 3.2 0.00 0.05 0.05 45 1024.5
20260905181517 21 223 0.0 3.2 0.00 0.05 0.05 42 1024.4
20260905180518 21 223 0.0 3.2 0.00 0.05 0.05 40 1024.4
20260905175517 22 223 1.6 3.2 0.00 0.05 0.05 39 1024.3
20260905174517 22 224 1.6 4.8 0.00 0.05 0.05 37 1024.2
20260905173517 22 223 1.6 8.0 0.00 0.05 0.05 37 1024.2
20260905172538 23 227 3.2 8.0 0.00 0.05 0.05 36 1024.0
20260905171518 23 222 3.2 9.7 0.00 0.05 0.05 36 1023.9
20260905170517 23 225 4.8 14.5 0.00 0.05 0.05 36 1023.8
20260905165537 23 221 4.8 9.7 0.00 0.05 0.05 36 1023.7
20260905164518 24 216 3.2 16.1 0.00 0.05 0.05 36 1023.6
20260905163517 24 222 6.4 16.1 0.00 0.05 0.05 35 1023.6
20260905162518 24 224 6.4 14.5 0.00 0.05 0.05 35 1023.5
20260905161517 25 235 4.8 14.5 0.00 0.05 0.05 35 1023.3
20260905160518 25 230 4.8 14.5 0.00 0.05 0.05 35 1023.2
20260905155517 25 231 4.8 19.3 0.00 0.05 0.05 35 1023.1
20260905154528 25 216 6.4 17.7 0.00 0.05 0.05 35 1023.1
20260905153518 25 225 4.8 17.7 0.00 0.05 0.05 34 1023.1
20260905152517 25 223 6.4 19.3 0.00 0.05 0.05 34 1023.1
20260905151518 25 236 4.8 20.9 0.00 0.05 0.05 34 1023.1
20260905150517 25 222 8.0 19.3 0.00 0.05 0.05 34 1023.1
20260905145518 25 229 4.8 16.1 0.00 0.05 0.05 34 1023.1
20260905144518 25 221 6.4 19.3 0.00 0.05 0.05 35 1023.1
20260905143518 25 221 6.4 16.1 0.00 0.05 0.05 35 1023.1
20260905142517 25 218 4.8 17.7 0.00 0.05 0.05 37 1022.9
20260905141517 25 217 8.0 22.5 0.00 0.05 0.05 37 1023.0
20260905140518 25 222 6.4 20.9 0.00 0.05 0.05 39 1022.9
20260905135518 25 215 4.8 16.1 0.00 0.05 0.05 38 1022.9
20260905134517 25 220 9.7 20.9 0.00 0.05 0.05 37 1022.9
20260905133518 25 214 8.0 17.7 0.00 0.05 0.05 39 1022.9
20260905132518 24 211 3.2 22.5 0.00 0.05 0.05 42 1022.9
20260905131517 24 212 6.4 16.1 0.00 0.05 0.05 41 1023.0
20260905130518 24 230 4.8 16.1 0.00 0.05 0.05 42 1023.1
20260905125517 24 220 9.7 20.9 0.00 0.05 0.05 40 1023.1
20260905124537 24 217 6.4 14.5 0.00 0.05 0.05 45 1023.1
20260905123538 23 221 8.0 20.9 0.00 0.05 0.05 44 1023.1
20260905122538 23 226 6.4 22.5 0.00 0.05 0.05 45 1023.0
20260905121518 23 219 6.4 16.1 0.00 0.05 0.05 49 1023.0
20260905120518 23 224 8.0 22.5 0.00 0.05 0.05 49 1023.1
20260905115518 23 221 6.4 19.3 0.00 0.05 0.05 49 1023.2
20260905114518 23 216 6.4 19.3 0.00 0.05 0.05 50 1023.2
20260905113518 22 240 6.4 22.5 0.00 0.05 0.05 50 1023.3
20260905112558 22 254 3.2 19.3 0.00 0.05 0.05 52 1023.2
20260905111518 22 228 6.4 17.7 0.00 0.05 0.05 52 1023.3
20260905110518 22 229 4.8 29.0 0.00 0.05 0.05 53 1023.2
20260905105518 22 224 4.8 19.3 0.00 0.05 0.05 54 1023.1
20260905104518 22 215 6.4 20.9 0.00 0.05 0.05 54 1023.2
20260905103557 22 239 4.8 14.5 0.00 0.05 0.05 58 1023.2
20260905102538 21 222 4.8 14.5 0.00 0.05 0.05 59 1023.2
20260905101518 21 211 6.4 17.7 0.00 0.05 0.05 59 1023.2
20260905100518 21 221 8.0 20.9 0.00 0.05 0.05 59 1023.2
20260905095517 21 219 3.2 9.7 0.00 0.05 0.05 62 1023.2
20260905094517 21 224 8.0 22.5 0.00 0.05 0.05 61 1023.2
20260905093517 21 227 6.4 17.7 0.00 0.05 0.05 61 1023.2
20260905092518 21 205 6.4 24.1 0.00 0.05 0.05 63 1023.1
20260905091517 21 221 3.2 12.9 0.00 0.05 0.05 64 1023.1
20260905090517 20 225 4.8 20.9 0.00 0.05 0.05 65 1023.1
20260905085517 20 210 4.8 16.1 0.00 0.05 0.05 66 1023.0
20260905084517 20 231 4.8 14.5 0.00 0.05 0.05 67 1022.8
20260905083517 20 279 4.8 17.7 0.00 0.05 0.05 68 1022.7
20260905082517 20 241 3.2 6.4 0.00 0.05 0.05 70 1022.6
20260905081517 20 228 3.2 8.0 0.00 0.05 0.05 71 1022.5
20260905080537 20 183 1.6 9.7 0.00 0.05 0.05 73 1022.4
20260905075517 19 224 4.8 22.5 0.00 0.05 0.05 75 1022.4
20260905074516 19 238 3.2 8.0 0.00 0.05 0.05 77 1022.2
20260905073517 19 241 4.8 16.1 0.00 0.05 0.05 77 1022.1
20260905072517 19 264 3.2 14.5 0.00 0.05 0.05 79 1022.0
20260905071517 18 218 4.8 16.1 0.00 0.05 0.05 81 1021.9
20260905070517 18 217 1.6 8.0 0.00 0.05 0.05 83 1021.8
20260905065537 18 227 1.6 6.4 0.00 0.05 0.05 84 1021.7
20260905064517 18 194 3.2 11.3 0.00 0.05 0.05 84 1021.7
20260905063537 18 218 3.2 8.0 0.00 0.05 0.05 84 1021.5
20260905062537 18 176 1.6 8.0 0.00 0.05 0.05 86 1021.4
20260905061557 17 287 0.0 3.2 0.00 0.05 0.05 87 1021.4
20260905060517 17 177 0.0 3.2 0.00 0.05 0.05 86 1021.3
20260905055517 17 173 0.0 8.0 0.00 0.05 0.05 87 1021.2
20260905054517 17 242 3.2 16.1 0.00 0.05 0.05 88 1021.0